STARLINK-11482, 62520

Orbit data source: Space-Track

STARLINK-11482, 62520 is a payload satellite owned by SpaceX/Seattle (US) in LEO that was launched on Wed, 08 Jan 2025 UTC via an FALCON 9 launch vehicle from the Air Force Eastern Test Range (AFETR). Payloads include a variety of satellites, spacecraft, and rockets equipped with specific instruments for various scientific and technological missions. These include communications satellites like Starlink; space stations such as the ISS; scientific satellites like the Hubble; Earth observation satellites from companies like Planet Labs, Umbra, and HawkEye 360; GPS; miniature CubeSats for education and research; and military/defense satellites.

Loading next visibility...
STARLINK-11482 details
Identifier
62520, 2025-004K
Orbit
LEO
Last TLE update12 hours ago
Origin
Flag of USSpaceX/Seattle (US)
ManufacturerSpaceX/Seattle
MissionOperational spacecraft
Bus & MotorSTARLINK V2M, Unknown motor
Mass730 kg wet, ~700 kg dry
Launch date (UTC)
2025-01-08 (1 month ago)
Launch vehicle
FALCON 9
Launch site
Air Force Eastern Test Range (AFETR)
Object type
Payload
Rocket body
Debris
Shape & HBRUnknown
Radar Cross SectionLarge (>1 m²)

Expand to show TLE details & history

TLE from 12 hours ago
0 STARLINK-11482
1 62520U 25004K   25035.80140908  .00005734  00000-0  35784-4 0  9991
2 62520  42.9969 309.7479 0001783 269.0739  90.9927 15.77860590  5537
Epoch: 2025-02-04T19:14Z
Definitive object data (Epoch: 2025-02-04T19:14:01.744Z)
Latitude-0.00001°
Longitude-113.96086°
Altitude336.294 km
Speed7.709 km/s
True Right ascension20h 38m 59s
True Declination0° 00' 00"
Sunlit
Object was in daylight at TLE epoch
Visualization TLE readout
Latitude-43.14691°
Longitude151.45551°
Altitude348.597 km
Speed7.701 km/s
Apparent Right ascension17h 41m 04s
Apparent Declination-54° 01' 03"
Sunlit
Object is in daylight
Visualization observer readout
Local Sidereal Time09:02:24
Azimuth130.037° SE
Elevation-53.792°
Doppler factor1
Orbital elements
Apogee altitude339.689 km
Perigee altitude337.294 km
Semi-major axis6,716.628 km
Eccentricity0.0001783
Inclination42.9969°
RAAN309.7479°
Arg. of periapsis269.0739°
True anomaly91.01313°
Mean anomaly90.9927°
Eccentric anomaly91.00291°
Mean motion3.9429 °/min
BSTAR0.000035784
Orbital period91.3 mins
Loading maneuver chart data...
Loading historical data...
Loading historical data...
Loading historical data...
Loading historical data...
Loading historical data...
Loading historical data...
Loading historical data...

STARLINK-11482 Visibility forecast

Observer location: undefined°, undefined

Span
Click to sort rows by Start time (UTC) header in descending order
Start Az.
Max El. time (UTC)
Max El. Az.
Max El.
End time (UTC)
End Az.
4 mins2025-02-05 21:16:08.113Z213.165° SW2025-02-05 21:18:08.113Z166.578° S25.642°2025-02-05 21:20:08.113Z98.092° ESE
4 mins2025-02-06 02:04:08.113Z280.573° WNW2025-02-06 02:06:08.113Z143.795° SSE38.956°2025-02-06 02:08:08.113Z118.583° SE
|